Year,Month,Day,Hour,Minute,Value (Times are PST for temperature in C)
2018,04,16,08,41,6.40
2018,04,16,08,42,6.40
2018,04,16,08,43,6.40
2018,04,16,08,44,6.40
2018,04,16,08,45,6.40
2018,04,16,08,46,6.40
2018,04,16,08,47,6.40
2018,04,16,08,48,6.40
2018,04,16,08,49,6.40
2018,04,16,08,50,6.40
2018,04,16,08,51,6.40
2018,04,16,08,52,6.40
2018,04,16,08,53,6.40
2018,04,16,08,54,6.40
2018,04,16,08,55,6.50
2018,04,16,08,56,6.50
2018,04,16,08,57,6.50
2018,04,16,08,58,6.50
2018,04,16,08,59,6.50
2018,04,16,09,00,6.50
2018,04,16,09,01,6.50
2018,04,16,09,02,6.50
2018,04,16,09,03,6.50
2018,04,16,09,04,6.40
2018,04,16,09,05,6.40
2018,04,16,09,06,6.40
2018,04,16,09,07,6.40
2018,04,16,09,08,6.40
2018,04,16,09,09,6.40
2018,04,16,09,10,6.40
2018,04,16,09,11,6.40
2018,04,16,09,12,6.40
2018,04,16,09,13,6.40
2018,04,16,09,14,6.40
2018,04,16,09,32,6.50
2018,04,16,09,33,6.50
2018,04,16,09,34,6.50
2018,04,16,09,35,6.50
2018,04,16,09,36,6.60
2018,04,16,09,37,6.60
2018,04,16,09,38,6.60
2018,04,16,09,39,6.60
2018,04,16,09,40,6.50
2018,04,16,09,41,6.50
2018,04,16,09,42,6.40
2018,04,16,09,43,6.40
2018,04,16,09,44,6.40
2018,04,16,09,45,6.40
2018,04,16,09,46,6.40
2018,04,16,09,47,6.40
2018,04,16,09,48,6.40
2018,04,16,09,49,6.40
2018,04,16,09,50,6.40
2018,04,16,09,51,6.40
2018,04,16,10,07,6.50
2018,04,16,10,08,6.50
2018,04,16,10,09,6.50
2018,04,16,10,10,6.50
2018,04,16,10,11,6.50
2018,04,16,10,12,6.50
2018,04,16,10,13,6.50
2018,04,16,10,14,6.60
2018,04,16,10,15,6.60
2018,04,16,10,16,6.50
2018,04,16,10,17,6.50
2018,04,16,10,18,6.50
2018,04,16,10,19,6.50
2018,04,16,10,20,6.50
2018,04,16,10,21,6.50
2018,04,16,10,22,6.60
2018,04,16,10,23,6.60
2018,04,16,10,24,6.60
2018,04,16,10,25,6.60
2018,04,16,10,26,6.60
2018,04,16,10,27,6.60
2018,04,16,10,28,6.60
2018,04,16,10,29,6.60
2018,04,16,10,30,6.60
2018,04,16,10,31,6.60
2018,04,16,10,32,6.60
2018,04,16,10,33,6.60
2018,04,16,10,34,6.60
2018,04,16,10,35,6.60
2018,04,16,10,36,6.60
2018,04,16,10,37,6.70
2018,04,16,10,38,6.70
2018,04,16,10,39,6.70
2018,04,16,10,40,6.70
2018,04,16,10,41,6.70
2018,04,16,10,42,6.70
2018,04,16,10,43,6.70
2018,04,16,10,44,6.60
2018,04,16,10,45,6.60
2018,04,16,10,46,6.60
2018,04,16,10,47,6.60
2018,04,16,10,48,6.60
2018,04,16,10,49,6.60
2018,04,16,10,50,6.60
2018,04,16,10,51,6.50
2018,04,16,10,52,6.50
2018,04,16,10,53,6.50
2018,04,16,10,54,6.40
2018,04,16,10,55,6.40
2018,04,16,10,56,6.50
2018,04,16,10,57,6.50
2018,04,16,10,58,6.60
2018,04,16,10,59,6.60
2018,04,16,11,00,6.60
2018,04,16,11,01,6.60
2018,04,16,11,02,6.60
2018,04,16,11,03,6.70
2018,04,16,11,04,6.70
2018,04,16,11,05,6.70
2018,04,16,11,06,6.70
2018,04,16,11,07,6.70
2018,04,16,11,08,6.70
2018,04,16,11,09,6.70
2018,04,16,11,10,6.70
2018,04,16,11,11,6.70
2018,04,16,11,12,6.70
2018,04,16,11,13,6.70
2018,04,16,11,14,6.70
2018,04,16,11,15,6.70
2018,04,16,11,16,6.70
2018,04,16,11,17,6.70
2018,04,16,11,18,6.80
2018,04,16,11,19,6.80
2018,04,16,11,20,6.80
2018,04,16,11,21,6.80
2018,04,16,11,22,6.80
2018,04,16,11,23,6.80
2018,04,16,11,24,6.90
2018,04,16,11,25,6.90
2018,04,16,11,26,6.90
2018,04,16,11,27,6.90
2018,04,16,11,28,6.90
2018,04,16,11,29,6.90
2018,04,16,11,30,6.90
2018,04,16,11,31,6.90
2018,04,16,11,32,6.90
2018,04,16,11,33,6.90
2018,04,16,11,34,7.00
2018,04,16,11,35,7.00
2018,04,16,11,36,7.00
2018,04,16,11,37,7.00
2018,04,16,11,38,7.10
2018,04,16,11,39,7.10
2018,04,16,11,40,7.10
2018,04,16,11,41,7.10
2018,04,16,11,42,7.10
2018,04,16,11,43,7.10
2018,04,16,11,44,7.10
2018,04,16,11,45,7.10
2018,04,16,11,46,7.10
2018,04,16,11,47,7.10
2018,04,16,11,48,7.10
2018,04,16,11,49,7.10
2018,04,16,11,50,7.10
2018,04,16,11,51,7.10
2018,04,16,11,52,7.10
2018,04,16,11,53,7.20
2018,04,16,11,54,7.20
2018,04,16,11,55,7.20
2018,04,16,11,56,7.20
2018,04,16,11,57,7.20
2018,04,16,11,58,7.20
2018,04,16,11,59,7.20
2018,04,16,12,00,7.20
2018,04,16,12,01,7.20
2018,04,16,12,02,7.20
2018,04,16,12,03,7.20
2018,04,16,12,04,7.20
2018,04,16,12,05,7.20
2018,04,16,12,06,7.20
2018,04,16,12,07,7.20
2018,04,16,12,08,7.20
2018,04,16,12,09,7.20
2018,04,16,12,10,7.20
2018,04,16,12,11,7.20
2018,04,16,12,12,7.20
2018,04,16,12,13,7.20
2018,04,16,12,14,7.30
2018,04,16,12,15,7.30
2018,04,16,12,16,7.30
2018,04,16,12,17,7.30
2018,04,16,12,18,7.30
2018,04,16,12,19,7.30
2018,04,16,12,20,7.30
2018,04,16,12,21,7.30
2018,04,16,12,22,7.30
2018,04,16,12,23,7.30
2018,04,16,12,24,7.30
2018,04,16,12,25,7.30
2018,04,16,12,26,7.30
2018,04,16,12,27,7.40
2018,04,16,12,28,7.40
2018,04,16,12,29,7.40
2018,04,16,12,30,7.40
2018,04,16,12,31,7.40
2018,04,16,12,32,7.40
2018,04,16,12,33,7.40
2018,04,16,12,34,7.40
2018,04,16,12,35,7.40
2018,04,16,12,36,7.40
2018,04,16,12,37,7.40
2018,04,16,12,38,7.40
2018,04,16,12,39,7.40
2018,04,16,12,40,7.40
2018,04,16,12,41,7.40
2018,04,16,12,42,7.40
2018,04,16,12,43,7.50
2018,04,16,12,44,7.50
2018,04,16,12,45,7.40
2018,04,16,12,46,7.40
2018,04,16,12,47,7.40
2018,04,16,12,48,7.40
2018,04,16,12,49,7.40
2018,04,16,12,50,7.40
2018,04,16,12,51,7.40
2018,04,16,12,52,7.40
2018,04,16,12,53,7.40
2018,04,16,12,54,7.40
2018,04,16,12,55,7.40
2018,04,16,12,56,7.40
2018,04,16,12,57,7.40
2018,04,16,12,58,7.40
2018,04,16,12,59,7.40
2018,04,16,13,00,7.40
2018,04,16,13,01,7.40
2018,04,16,13,02,7.40
2018,04,16,13,03,7.40
2018,04,16,13,04,7.40
2018,04,16,13,05,7.40
2018,04,16,13,06,7.40
2018,04,16,13,07,7.40
2018,04,16,13,08,7.40
2018,04,16,13,09,7.40
2018,04,16,13,10,7.50
2018,04,16,13,11,7.50
2018,04,16,13,12,7.50
2018,04,16,13,13,7.50
2018,04,16,13,14,7.50
2018,04,16,13,15,7.60
2018,04,16,13,16,7.60
2018,04,16,13,17,7.50
2018,04,16,13,18,7.50
2018,04,16,13,19,7.60
2018,04,16,13,20,7.50
2018,04,16,13,21,7.60
2018,04,16,13,22,7.60
2018,04,16,13,23,7.60
2018,04,16,13,24,7.60
2018,04,16,13,25,7.50
2018,04,16,13,26,7.50
2018,04,16,13,27,7.40
2018,04,16,13,28,7.40
2018,04,16,13,29,7.40
2018,04,16,13,30,7.40
2018,04,16,13,31,7.40
2018,04,16,13,32,7.40
2018,04,16,13,33,7.50
2018,04,16,13,34,7.50
2018,04,16,13,35,7.40
2018,04,16,13,36,7.40
2018,04,16,13,37,7.40
2018,04,16,13,38,7.50
2018,04,16,13,39,7.50
2018,04,16,13,40,7.50
2018,04,16,13,41,7.50
2018,04,16,13,42,7.50
2018,04,16,13,43,7.50
2018,04,16,13,44,7.50
2018,04,16,13,45,7.60
2018,04,16,13,46,7.60
2018,04,16,13,47,7.60
2018,04,16,13,48,7.60
2018,04,16,13,49,7.60
2018,04,16,13,50,7.60
2018,04,16,13,51,7.50
2018,04,16,13,52,7.50
2018,04,16,13,53,7.60
2018,04,16,13,54,7.60
2018,04,16,13,55,7.50
2018,04,16,13,56,7.50
2018,04,16,13,57,7.50
2018,04,16,13,58,7.50
2018,04,16,13,59,7.50
2018,04,16,14,00,7.50
2018,04,16,14,01,7.60
2018,04,16,14,02,7.60
2018,04,16,14,03,7.60
2018,04,16,14,04,7.60
2018,04,16,14,05,7.60
2018,04,16,14,06,7.50
2018,04,16,14,07,7.50
2018,04,16,14,08,7.40
2018,04,16,14,09,7.40
2018,04,16,14,10,7.40
2018,04,16,14,11,7.40
2018,04,16,14,12,7.40
2018,04,16,14,13,7.40
2018,04,16,14,14,7.40
2018,04,16,14,15,7.40
2018,04,16,14,16,7.40
2018,04,16,14,17,7.40
2018,04,16,14,18,7.40
2018,04,16,14,19,7.40
2018,04,16,14,20,7.40
2018,04,16,14,21,7.40
2018,04,16,14,22,7.40
2018,04,16,14,23,7.40
2018,04,16,14,24,7.40
2018,04,16,14,25,7.40
2018,04,16,14,26,7.40
2018,04,16,14,27,7.50
2018,04,16,14,28,7.50
2018,04,16,14,29,7.60
2018,04,16,14,30,7.60
2018,04,16,14,31,7.60
2018,04,16,14,32,7.60
2018,04,16,14,33,7.60
2018,04,16,14,34,7.60
2018,04,16,14,35,7.60
2018,04,16,14,36,7.60
2018,04,16,14,37,7.60
2018,04,16,14,38,7.60
2018,04,16,14,39,7.60
2018,04,16,14,40,7.60
2018,04,16,14,41,7.60
2018,04,16,14,42,7.60
2018,04,16,14,43,7.60
2018,04,16,14,44,7.50
2018,04,16,14,45,7.50
2018,04,16,14,46,7.50
2018,04,16,14,47,7.50
2018,04,16,14,48,7.40
2018,04,16,14,49,7.40
2018,04,16,14,50,7.40
2018,04,16,14,51,7.40
2018,04,16,14,52,7.40
2018,04,16,14,53,7.40
2018,04,16,14,54,7.40
2018,04,16,14,55,7.40
2018,04,16,14,56,7.40
2018,04,16,14,57,7.40
2018,04,16,14,58,7.40
2018,04,16,14,59,7.40
2018,04,16,15,00,7.40
2018,04,16,15,01,7.40
2018,04,16,15,02,7.40
2018,04,16,15,03,7.40
2018,04,16,15,04,7.40
2018,04,16,15,05,7.40
2018,04,16,15,06,7.40
2018,04,16,15,07,7.40
2018,04,16,15,08,7.40
2018,04,16,15,09,7.40
2018,04,16,15,10,7.40
2018,04,16,15,11,7.40
2018,04,16,15,12,7.30
2018,04,16,15,13,7.40
2018,04,16,15,14,7.40
2018,04,16,15,15,7.40
2018,04,16,15,16,7.40
2018,04,16,15,17,7.40
2018,04,16,15,18,7.40
2018,04,16,15,19,7.40
2018,04,16,15,20,7.40
2018,04,16,15,21,7.40
2018,04,16,15,22,7.40
2018,04,16,15,23,7.40
2018,04,16,15,24,7.40
2018,04,16,15,25,7.40
2018,04,16,15,26,7.40
2018,04,16,15,27,7.40
2018,04,16,15,28,7.40
2018,04,16,15,29,7.40
2018,04,16,15,30,7.40
2018,04,16,15,31,7.30
2018,04,16,15,32,7.40
2018,04,16,15,33,7.40
2018,04,16,15,34,7.40
2018,04,16,15,35,7.40
2018,04,16,15,36,7.40
2018,04,16,15,37,7.40
2018,04,16,15,38,7.40
2018,04,16,15,39,7.40
2018,04,16,15,40,7.30
2018,04,16,15,41,7.30
2018,04,16,15,42,7.30
2018,04,16,15,43,7.30
2018,04,16,15,44,7.40
2018,04,16,15,45,7.40
2018,04,16,15,46,7.40
2018,04,16,15,47,7.40
2018,04,16,15,48,7.40
2018,04,16,15,49,7.40
2018,04,16,15,50,7.40
2018,04,16,15,51,7.30
2018,04,16,15,52,7.30
2018,04,16,15,53,7.30
2018,04,16,15,54,7.30
2018,04,16,15,55,7.30
2018,04,16,15,56,7.30
2018,04,16,15,57,7.40
2018,04,16,15,58,7.40
2018,04,16,15,59,7.40
2018,04,16,16,00,7.30
2018,04,16,16,01,7.30
2018,04,16,16,02,7.30
2018,04,16,16,03,7.30
2018,04,16,16,04,7.30
2018,04,16,16,05,7.30
2018,04,16,16,06,7.30
2018,04,16,16,07,7.30
2018,04,16,16,08,7.20
2018,04,16,16,09,7.20
2018,04,16,16,10,7.20
2018,04,16,16,11,7.30
2018,04,16,16,12,7.30
2018,04,16,16,13,7.30
2018,04,16,16,14,7.30
2018,04,16,16,15,7.30
2018,04,16,16,16,7.30
2018,04,16,16,17,7.30
2018,04,16,16,18,7.30
2018,04,16,16,19,7.40
2018,04,16,16,20,7.40
2018,04,16,16,21,7.40
2018,04,16,16,22,7.40
2018,04,16,16,23,7.40
2018,04,16,16,24,7.40
2018,04,16,16,25,7.40
2018,04,16,16,26,7.50
2018,04,16,16,27,7.40
2018,04,16,16,28,7.40
2018,04,16,16,29,7.40
2018,04,16,16,30,7.40
2018,04,16,16,31,7.40
2018,04,16,16,32,7.30
2018,04,16,16,33,7.30
2018,04,16,16,34,7.30
2018,04,16,16,35,7.30
2018,04,16,16,36,7.30
2018,04,16,16,37,7.30
2018,04,16,16,38,7.30
2018,04,16,16,39,7.30
2018,04,16,16,40,7.30
2018,04,16,16,41,7.30
2018,04,16,16,42,7.30
2018,04,16,16,43,7.40
2018,04,16,16,44,7.40
2018,04,16,16,45,7.40
2018,04,16,16,46,7.40
2018,04,16,16,47,7.40
2018,04,16,16,48,7.40
2018,04,16,16,49,7.40
2018,04,16,16,50,7.40
2018,04,16,16,51,7.40
2018,04,16,16,52,7.40
2018,04,16,16,53,7.40
2018,04,16,16,54,7.40
2018,04,16,16,55,7.40
2018,04,16,16,56,7.40
2018,04,16,16,57,7.40
2018,04,16,16,58,7.40
2018,04,16,16,59,7.30
2018,04,16,17,00,7.30
2018,04,16,17,01,7.30
2018,04,16,17,02,7.30
2018,04,16,17,03,7.30
2018,04,16,17,04,7.30
2018,04,16,17,05,7.30
2018,04,16,17,06,7.30
2018,04,16,17,07,7.30
2018,04,16,17,08,7.30
2018,04,16,17,09,7.30
2018,04,16,17,10,7.30
2018,04,16,17,11,7.30
2018,04,16,17,12,7.30
2018,04,16,17,13,7.30
2018,04,16,17,14,7.30
2018,04,16,17,15,7.30
2018,04,16,17,16,7.30
2018,04,16,17,17,7.40
2018,04,16,17,18,7.40
2018,04,16,17,19,7.40
2018,04,16,17,20,7.40
2018,04,16,17,21,7.40
2018,04,16,17,22,7.40
2018,04,16,17,23,7.40
2018,04,16,17,24,7.40
2018,04,16,17,25,7.40
2018,04,16,17,26,7.40
2018,04,16,17,27,7.40
2018,04,16,17,28,7.30
2018,04,16,17,29,7.30
2018,04,16,17,30,7.30
2018,04,16,17,31,7.30
2018,04,16,17,32,7.30
2018,04,16,17,33,7.30
2018,04,16,17,34,7.30
2018,04,16,17,35,7.20
2018,04,16,17,36,7.20
2018,04,16,17,37,7.20
2018,04,16,17,38,7.20
2018,04,16,17,39,7.20
2018,04,16,17,40,7.10
2018,04,16,17,41,7.10
2018,04,16,17,42,7.10
2018,04,16,17,43,7.10
2018,04,16,17,44,7.00
2018,04,16,17,45,7.00
2018,04,16,17,46,7.00
2018,04,16,17,47,7.00
2018,04,16,17,48,7.00
2018,04,16,17,49,7.00
2018,04,16,17,50,7.00
2018,04,16,17,51,7.00
2018,04,16,17,52,7.00
2018,04,16,17,53,7.00
2018,04,16,17,54,7.00
2018,04,16,17,55,7.00
2018,04,16,17,56,7.00
2018,04,16,17,57,7.00
2018,04,16,17,58,7.10
2018,04,16,17,59,7.10
2018,04,16,18,00,7.10
2018,04,16,18,01,7.10
2018,04,16,18,02,7.10
2018,04,16,18,03,7.10
2018,04,16,18,04,7.10
2018,04,16,18,05,7.10
2018,04,16,18,06,7.20
2018,04,16,18,07,7.10
2018,04,16,18,08,7.20
2018,04,16,18,09,7.20
2018,04,16,18,10,7.20
2018,04,16,18,11,7.20
2018,04,16,18,12,7.20
2018,04,16,18,13,7.10
2018,04,16,18,14,7.10
2018,04,16,18,15,7.10
2018,04,16,18,16,7.10
2018,04,16,18,17,7.10
2018,04,16,18,18,7.10
2018,04,16,18,19,7.10
2018,04,16,18,20,7.10
2018,04,16,18,21,7.10
2018,04,16,18,22,7.10
2018,04,16,18,23,7.10
2018,04,16,18,24,7.10
2018,04,16,18,25,7.10
2018,04,16,18,26,7.10
2018,04,16,18,27,7.10
2018,04,16,18,28,7.10
2018,04,16,18,29,7.10
2018,04,16,18,30,7.10
2018,04,16,18,31,7.10
2018,04,16,18,32,7.20
2018,04,16,18,33,7.20
2018,04,16,18,34,7.20
2018,04,16,18,35,7.20
2018,04,16,18,36,7.20
2018,04,16,18,37,7.20
2018,04,16,18,38,7.20
2018,04,16,18,39,7.20
2018,04,16,18,40,7.20
2018,04,16,18,41,7.20
2018,04,16,18,42,7.20
2018,04,16,18,43,7.20
2018,04,16,18,44,7.20
2018,04,16,18,45,7.20
2018,04,16,18,46,7.20
2018,04,16,18,47,7.20
2018,04,16,18,48,7.20
2018,04,16,18,49,7.20
2018,04,16,18,50,7.20
2018,04,16,18,51,7.20
2018,04,16,18,52,7.20
2018,04,16,18,53,7.20
2018,04,16,18,54,7.20
2018,04,16,18,55,7.20
2018,04,16,18,56,7.20
2018,04,16,18,57,7.30
2018,04,16,18,58,7.30
2018,04,16,18,59,7.30
2018,04,16,19,00,7.30
2018,04,16,19,01,7.30
2018,04,16,19,02,7.30
2018,04,16,19,03,7.30
2018,04,16,19,04,7.30
2018,04,16,19,05,7.30
2018,04,16,19,06,7.30
2018,04,16,19,07,7.30
2018,04,16,19,08,7.30
2018,04,16,19,09,7.30
2018,04,16,19,10,7.30
2018,04,16,19,11,7.30
2018,04,16,19,12,7.30
2018,04,16,19,13,7.30
2018,04,16,19,14,7.30
2018,04,16,19,15,7.30
2018,04,16,19,16,7.30
2018,04,16,19,17,7.30
2018,04,16,19,18,7.30
2018,04,16,19,19,7.30
2018,04,16,19,20,7.30
2018,04,16,19,21,7.30
2018,04,16,19,22,7.30
2018,04,16,19,23,7.30
2018,04,16,19,24,7.40
2018,04,16,19,25,7.30
2018,04,16,19,26,7.30
2018,04,16,19,27,7.30
2018,04,16,19,28,7.30
2018,04,16,19,29,7.30
2018,04,16,19,30,7.30
2018,04,16,19,31,7.40
2018,04,16,19,32,7.40
2018,04,16,19,33,7.40
2018,04,16,19,34,7.40
2018,04,16,19,35,7.40
2018,04,16,19,36,7.40
2018,04,16,19,37,7.40
2018,04,16,19,38,7.40
2018,04,16,19,39,7.40
2018,04,16,19,40,7.40
2018,04,16,19,41,7.40
2018,04,16,19,42,7.40
2018,04,16,19,43,7.40
2018,04,16,19,44,7.30
2018,04,16,19,45,7.30
2018,04,16,19,46,7.30
2018,04,16,19,47,7.30
2018,04,16,19,48,7.30
2018,04,16,19,49,7.30
2018,04,16,19,50,7.40
2018,04,16,19,51,7.30
2018,04,16,19,52,7.30
2018,04,16,19,53,7.30
2018,04,16,19,54,7.30
2018,04,16,19,55,7.30
2018,04,16,19,56,7.30
2018,04,16,19,57,7.30
2018,04,16,19,58,7.30
2018,04,16,19,59,7.30
2018,04,16,20,00,7.30
2018,04,16,20,01,7.30
2018,04,16,20,02,7.30
2018,04,16,20,03,7.30
2018,04,16,20,04,7.30
2018,04,16,20,05,7.30
2018,04,16,20,06,7.30
2018,04,16,20,07,7.30
2018,04,16,20,08,7.30
2018,04,16,20,09,7.30
2018,04,16,20,10,7.30
2018,04,16,20,11,7.30
2018,04,16,20,12,7.30
2018,04,16,20,13,7.30
2018,04,16,20,14,7.30
2018,04,16,20,15,7.30
2018,04,16,20,16,7.30
2018,04,16,20,17,7.30
2018,04,16,20,18,7.30
2018,04,16,20,19,7.30
2018,04,16,20,20,7.30
2018,04,16,20,21,7.30
2018,04,16,20,22,7.30
2018,04,16,20,23,7.20
2018,04,16,20,24,7.20
2018,04,16,20,25,7.20
2018,04,16,20,26,7.20
2018,04,16,20,27,7.20
2018,04,16,20,28,7.20
2018,04,16,20,29,7.20
2018,04,16,20,30,7.20
2018,04,16,20,31,7.20
2018,04,16,20,32,7.20
2018,04,16,20,33,7.20
